[[{"header":{"parameterUnit":"m.s-1","parameterCategory":1,"la1":30.2991,"la2":30.254,"lo1":-89.0895,"lo2":-89.0444,"dy":0.0017,"dx":0.0017,"nx":28,"ny":28,"refTime":"2024-08-09T21:00:00:Z","depth":0,"parameterNumber":2,"parameterNumberName":"U-component_of_WINDS"},"data":[0,0,0,0,0,0,0,0,0,0,0,0,0,0,0,0,0,0,0,0,0,0,0,0,0,0,0,0,0,0,0,0,0,0,0,0,0,0,0,0,0,0,0,0,0,0,0,0,0,0,0,0,0,0,0,0,0,0,-1.4298,-1.4299,0,-1.4321,-1.4321,-1.4321,-1.4299,-1.4298,-1.4297,-1.4296,-1.4318,-1.432,-1.4321,0,0,0,0,0,0,0,0,0,0,0,0,0,-1.4236,-1.4237,-1.4298,-1.4299,-1.4299,-1.4321,-1.4321,-1.4321,-1.4299,-1.4298,-1.4297,-1.4296,-1.4318,-1.4319,-1.4321,0,0,0,0,0,0,0,0,0,0,0,0,0,-1.4261,-1.4238,-1.4298,-1.429,-1.429,-1.4321,-1.4321,-1.4321,-1.4299,-1.4298,-1.4297,-1.4296,-1.4317,-1.4319,-1.4321,-1.436,0,0,-1.4328,-1.4328,0,0,0,0,0,0,0,0,-1.426,-1.4263,-1.4291,-1.4291,-1.4291,-1.4306,-1.4307,-1.4334,-1.43,-1.4296,-1.4296,-1.4295,-1.4315,-1.4317,-1.4324,-1.4361,-1.4362,-1.4328,-1.4329,-1.433,-1.4331,0,0,0,0,0,0,0,-1.4258,-1.4262,-1.4307,-1.4292,-1.4291,-1.4286,-1.4288,-1.4312,-1.4312,-1.4296,-1.4295,-1.4298,-1.4315,-1.4322,-1.4325,-1.4362,-1.4328,-1.433,-1.4331,-1.4332,-1.4433,-1.4435,0,0,0,0,0,0,-1.4257,-1.4261,-1.4306,-1.4308,-1.4272,-1.4288,-1.429,-1.4302,-1.4312,-1.4312,-1.4299,-1.4296,-1.4319,-1.4322,-1.4325,-1.4372,-1.433,-1.4332,-1.4333,-1.4432,-1.4434,-1.4435,0,0,0,0,0,0,-1.4256,-1.4262,-1.4305,-1.4284,-1.4289,-1.429,-1.4304,-1.4303,-1.4311,-1.4314,-1.4314,-1.4306,-1.4318,-1.4322,-1.4352,-1.4372,-1.4333,-1.4335,-1.443,-1.4432,-1.4434,-1.4465,0,0,0,0,0,0,-1.4254,-1.4261,-1.4276,-1.4285,-1.429,-1.4332,-1.4305,-1.4305,-1.4315,-1.4312,-1.4321,-1.4322,-1.4318,-1.4349,-1.4354,-1.4374,-1.4336,-1.4428,-1.4431,-1.4434,-1.4462,-1.4468,-1.4473,0,0,0,0,0,-1.4252,-1.4283,-1.4277,-1.4282,-1.4309,-1.4333,-1.4336,-1.4332,-1.4317,-1.4331,-1.4334,-1.4321,-1.4369,-1.4352,-1.4358,-1.4379,-1.4427,-1.443,-1.4434,-1.4459,-1.4467,-1.4472,0,0,0,0,0,0,-1.4276,-1.4284,-1.4277,-1.4312,-1.4322,-1.4329,-1.4348,-1.4339,-1.4353,-1.435,-1.4344,-1.4346,-1.4377,-1.4381,-1.4362,-1.4418,-1.4396,-1.44,-1.4414,-1.442,-1.4426,-1.4423,-1.4338,0,0,0,0,0,-1.4285,-1.4304,-1.431,-1.434,-1.4346,-1.4346,-1.4356,-1.4352,-1.4362,-1.4366,-1.4371,-1.4381,-1.4398,-1.441,-1.4426,-1.4463,-1.4465,-1.448,-1.4486,-1.449,-1.4494,-1.4514,-1.4521,-1.4446,-1.4446,-1.4446,0,0,-1.4304,-1.4311,-1.4323,-1.4345,-1.4353,-1.4373,-1.435,-1.4372,-1.4386,-1.4369,-1.4398,-1.4402,-1.4412,-1.4446,-1.4461,-1.445,-1.4515,-1.4494,-1.4498,-1.4499,-1.4518,-1.4525,-1.4532,-1.4448,-1.4448,-1.4447,0,0,-1.4349,-1.4357,-1.4383,-1.4391,-1.4403,-1.4403,-1.441,-1.4419,-1.4421,-1.4449,-1.4437,-1.4455,-1.4485,-1.4493,-1.4502,-1.4552,-1.4541,-1.4558,-1.4585,-1.4605,-1.4611,-1.4616,-1.4634,-1.464,-1.4562,-1.4562,-1.4562,0,-1.4371,-1.4401,-1.4397,-1.442,-1.443,-1.4417,-1.4443,-1.4452,-1.4468,-1.4475,-1.4463,-1.4502,-1.4508,-1.4544,-1.4556,-1.4563,-1.457,-1.4556,-1.4611,-1.4616,-1.4621,-1.4637,-1.4644,-1.4563,-1.4563,-1.4563,-1.4563,0,-1.4428,-1.4449,-1.4468,-1.4485,-1.4498,-1.4522,-1.4522,-1.4535,-1.4531,-1.4532,-1.4562,-1.457,-1.4587,-1.4596,-1.4591,-1.4631,-1.4624,-1.4612,-1.4589,-1.463,-1.4645,-1.4652,-1.4566,-1.4565,-1.4565,-1.4564,0,0,-1.4486,-1.4502,-1.4509,-1.4517,-1.4531,-1.4547,-1.4571,-1.4589,-1.4601,-1.4613,-1.4633,-1.466,-1.4649,-1.4659,-1.4655,-1.4673,-1.4712,-1.4658,-1.4658,-1.4667,-1.4757,-1.4766,-1.4773,-1.4706,-1.4707,-1.4708,-1.4756,0,-1.4531,-1.4574,-1.4572,-1.4612,-1.4631,-1.462,-1.4642,-1.4652,-1.4655,-1.4672,-1.4675,-1.4694,-1.4678,-1.4683,-1.4701,-1.4704,-1.473,-1.47,-1.4724,-1.4725,-1.4721,-1.4782,-1.4791,-1.4835,-1.4762,-1.4763,-1.4764,0,-1.4588,-1.4604,-1.4646,-1.4658,-1.4666,-1.4685,-1.4702,-1.4719,-1.4731,-1.4732,-1.4743,-1.4737,-1.4762,-1.4741,-1.4775,-1.4755,-1.4765,-1.4768,-1.477,-1.4771,-1.4746,-1.4784,-1.4849,-1.4856,-1.4774,-1.4773,-1.4772,0,-1.4626,-1.4658,-1.4687,-1.4695,-1.4709,-1.4723,-1.4729,-1.474,-1.4752,-1.4767,-1.4774,-1.4792,-1.4801,-1.4815,-1.4814,-1.4799,-1.4849,-1.4827,-1.485,-1.485,-1.486,-1.4859,-1.4928,-1.4868,-1.4868,-1.4868,-1.4868,0,-1.4676,-1.4702,-1.4705,-1.4723,-1.4752,-1.475,-1.4779,-1.4784,-1.4794,-1.4813,-1.4805,-1.4823,-1.4821,-1.4839,-1.4838,-1.4867,-1.4871,-1.4872,-1.4871,-1.4872,-1.4872,-1.4878,-1.4874,-1.487,-1.4869,-1.4869,-1.4869,0,-1.4722,-1.4725,-1.4756,-1.4768,-1.4772,-1.4793,-1.4803,-1.482,-1.4823,-1.4847,-1.4852,-1.4857,-1.4878,-1.4879,-1.4902,-1.4902,-1.4937,-1.4933,-1.4933,-1.4932,-1.4954,-1.4952,-1.5028,-1.5037,-1.4973,-1.4973,-1.4974,0,-1.4753,-1.4773,-1.4788,-1.48,-1.4808,-1.4828,-1.484,-1.4839,-1.4852,-1.4869,-1.4884,-1.4905,-1.4921,-1.4955,-1.496,-1.4978,-1.4974,-1.5,-1.4977,-1.4977,-1.4974,-1.4972,-1.4974,-1.5004,-1.5005,-1.5005,-1.5006,0,-1.4808,-1.4809,-1.4827,-1.4846,-1.4861,-1.4876,-1.4889,-1.49,-1.4901,-1.4916,-1.4938,-1.4951,-1.4976,-1.4996,-1.5015,-1.5021,-1.5014,-1.5013,-1.5019,-1.502,-1.5018,-1.5019,-1.4944,-1.5011,-1.501,-1.501,-1.501,-1.501,-1.4847,-1.4864,-1.4878,-1.4898,-1.4909,-1.4922,-1.4939,-1.4945,-1.4964,-1.4984,-1.4983,-1.5008,-1.502,-1.5044,-1.5053,-1.5072,-1.5063,-1.5072,-1.5074,-1.5076,-1.5078,-1.5017,-1.5075,-1.5075,-1.5075,-1.5075,-1.5075,0,-1.49,-1.4909,-1.4928,-1.4948,-1.4965,-1.4958,-1.4973,-1.4987,-1.5009,-1.5022,-1.5039,-1.5064,-1.5084,-1.5092,-1.5112,-1.5125,-1.5123,-1.5131,-1.5129,-1.513,-1.5085,-1.5077,-1.5133,-1.5133,-1.5133,-1.5133,-1.5133,-1.5133,-1.493,-1.4959,-1.4962,-1.4997,-1.5005,-1.503,-1.5039,-1.5052,-1.5062,-1.5091,-1.5108,-1.5114,-1.5125,-1.5146,-1.5164,-1.5166,-1.5173,-1.5182,-1.5183,-1.514,-1.5134,-1.5128,-1.5121,-1.5184,-1.5184,-1.5226,-1.5227,-1.5227]},{"header":{"parameterUnit":"m.s-1","parameterCategory":1,"la1":30.2991,"la2":30.254,"lo1":-89.0895,"lo2":-89.0444,"dy":0.0017,"dx":0.0017,"nx":28,"ny":28,"refTime":"2024-08-09T21:00:00:Z","depth":0,"parameterNumber":3,"parameterNumberName":"V-component_of_WINDS"},"data":[0,0,0,0,0,0,0,0,0,0,0,0,0,0,0,0,0,0,0,0,0,0,0,0,0,0,0,0,0,0,0,0,0,0,0,0,0,0,0,0,0,0,0,0,0,0,0,0,0,0,0,0,0,0,0,0,0,0,-0.7525,-0.7525,0,-0.7546,-0.7546,-0.7547,-0.7518,-0.7517,-0.7516,-0.7515,-0.7537,-0.7538,-0.754,0,0,0,0,0,0,0,0,0,0,0,0,0,-0.7458,-0.746,-0.7525,-0.7525,-0.7525,-0.7546,-0.7546,-0.7547,-0.7518,-0.7517,-0.7516,-0.7514,-0.7536,-0.7538,-0.754,0,0,0,0,0,0,0,0,0,0,0,0,0,-0.7484,-0.746,-0.7525,-0.7514,-0.7513,-0.7546,-0.7546,-0.7547,-0.7518,-0.7517,-0.7515,-0.7514,-0.7536,-0.7538,-0.754,-0.7585,0,0,-0.7547,-0.7548,0,0,0,0,0,0,0,0,-0.7483,-0.7487,-0.7515,-0.7514,-0.7514,-0.7528,-0.7531,-0.756,-0.7519,-0.7516,-0.7515,-0.7513,-0.7535,-0.7537,-0.7545,-0.7586,-0.7587,-0.7547,-0.7549,-0.755,-0.755,0,0,0,0,0,0,0,-0.7481,-0.7486,-0.7533,-0.7515,-0.7515,-0.7507,-0.7509,-0.7536,-0.7534,-0.7516,-0.7514,-0.7517,-0.7534,-0.7542,-0.7545,-0.7588,-0.7547,-0.7549,-0.7551,-0.7552,-0.7667,-0.7669,0,0,0,0,0,0,-0.7481,-0.7484,-0.7533,-0.7534,-0.7494,-0.751,-0.7512,-0.7525,-0.7534,-0.7534,-0.7519,-0.7516,-0.7539,-0.7542,-0.7546,-0.76,-0.755,-0.7552,-0.7553,-0.7666,-0.7668,-0.767,0,0,0,0,0,0,-0.7479,-0.7485,-0.7532,-0.7509,-0.7514,-0.7513,-0.7527,-0.7526,-0.7534,-0.7535,-0.7535,-0.7528,-0.7538,-0.7542,-0.7576,-0.76,-0.7553,-0.7555,-0.7664,-0.7666,-0.7669,-0.7708,0,0,0,0,0,0,-0.7478,-0.7485,-0.7502,-0.7509,-0.7515,-0.7562,-0.7529,-0.7528,-0.7538,-0.7535,-0.7544,-0.7543,-0.7537,-0.7572,-0.7578,-0.7602,-0.7557,-0.7662,-0.7665,-0.7668,-0.7705,-0.7712,-0.7718,0,0,0,0,0,-0.7475,-0.7513,-0.7504,-0.7509,-0.7537,-0.7563,-0.7567,-0.7559,-0.754,-0.7558,-0.7558,-0.7543,-0.7596,-0.7576,-0.7582,-0.7608,-0.766,-0.7664,-0.7668,-0.7702,-0.771,-0.7718,0,0,0,0,0,0,-0.7509,-0.7513,-0.7503,-0.7544,-0.7553,-0.7558,-0.758,-0.7568,-0.7583,-0.758,-0.7569,-0.7571,-0.7607,-0.761,-0.7588,-0.7652,-0.7625,-0.763,-0.7649,-0.7657,-0.7663,-0.7663,-0.7559,0,0,0,0,0,-0.7521,-0.7542,-0.7544,-0.758,-0.7585,-0.7582,-0.7593,-0.7586,-0.7596,-0.76,-0.7603,-0.7612,-0.7631,-0.7644,-0.7661,-0.7704,-0.7706,-0.7725,-0.7731,-0.7736,-0.7742,-0.7765,-0.7774,-0.7682,-0.7682,-0.7682,0,0,-0.7546,-0.7551,-0.7565,-0.7587,-0.7594,-0.7616,-0.7586,-0.761,-0.7627,-0.7603,-0.7636,-0.7638,-0.7648,-0.7686,-0.7704,-0.769,-0.7767,-0.7741,-0.7746,-0.7748,-0.777,-0.7779,-0.7786,-0.7685,-0.7684,-0.7684,0,0,-0.7604,-0.7609,-0.764,-0.7647,-0.7657,-0.7655,-0.7662,-0.7669,-0.767,-0.7701,-0.7685,-0.7703,-0.7736,-0.7744,-0.7752,-0.7812,-0.7799,-0.7818,-0.7852,-0.7875,-0.7883,-0.7889,-0.7911,-0.7919,-0.7822,-0.7823,-0.7823,0,-0.7634,-0.7667,-0.7657,-0.7683,-0.7693,-0.7673,-0.7704,-0.7711,-0.7726,-0.7734,-0.7718,-0.7759,-0.7764,-0.7804,-0.7819,-0.7826,-0.7834,-0.7818,-0.7882,-0.7889,-0.7895,-0.7916,-0.7924,-0.7825,-0.7825,-0.7824,-0.7824,0,-0.7704,-0.7727,-0.775,-0.7766,-0.7778,-0.7807,-0.7801,-0.7815,-0.7806,-0.7805,-0.7838,-0.7843,-0.7861,-0.787,-0.7862,-0.7909,-0.7901,-0.7884,-0.7857,-0.7906,-0.7926,-0.7934,-0.7828,-0.7827,-0.7827,-0.7826,0,0,-0.7785,-0.7794,-0.7803,-0.781,-0.782,-0.7837,-0.7864,-0.7882,-0.7894,-0.7905,-0.7928,-0.7955,-0.794,-0.7949,-0.7942,-0.7962,-0.801,-0.7942,-0.7942,-0.7956,-0.8063,-0.8077,-0.8087,-0.8,-0.8002,-0.8003,-0.8063,0,-0.7844,-0.7891,-0.7883,-0.7929,-0.795,-0.793,-0.7954,-0.7962,-0.7961,-0.7979,-0.7978,-0.7998,-0.7975,-0.7981,-0.8,-0.8,-0.8032,-0.7995,-0.8022,-0.8023,-0.8022,-0.8097,-0.8112,-0.8168,-0.807,-0.8072,-0.8073,0,-0.7919,-0.7933,-0.7981,-0.7988,-0.7996,-0.8018,-0.8033,-0.805,-0.8059,-0.8057,-0.8067,-0.8056,-0.8082,-0.8054,-0.8091,-0.8066,-0.8076,-0.8078,-0.808,-0.8083,-0.8052,-0.8104,-0.8186,-0.8195,-0.8084,-0.8084,-0.8083,0,-0.7975,-0.8006,-0.8039,-0.8045,-0.8053,-0.8068,-0.8072,-0.8079,-0.809,-0.8104,-0.8111,-0.8127,-0.8136,-0.8149,-0.8142,-0.8121,-0.818,-0.8151,-0.818,-0.818,-0.8195,-0.8194,-0.8281,-0.8199,-0.8199,-0.8198,-0.8198,0,-0.8043,-0.8073,-0.8064,-0.8085,-0.8118,-0.8107,-0.8141,-0.8142,-0.8149,-0.8169,-0.8152,-0.8171,-0.816,-0.8179,-0.8173,-0.8205,-0.8209,-0.8208,-0.8207,-0.8211,-0.8211,-0.8219,-0.8215,-0.8201,-0.82,-0.82,-0.8199,0,-0.8112,-0.8107,-0.8142,-0.8146,-0.8147,-0.8172,-0.8175,-0.8194,-0.8192,-0.8218,-0.8223,-0.8219,-0.824,-0.8234,-0.8256,-0.8252,-0.8293,-0.8286,-0.8291,-0.829,-0.832,-0.8317,-0.8416,-0.8428,-0.8336,-0.8337,-0.8338,0,-0.8156,-0.8179,-0.8186,-0.8198,-0.8203,-0.8224,-0.8235,-0.8225,-0.8237,-0.8248,-0.8266,-0.8285,-0.83,-0.8334,-0.8334,-0.835,-0.8344,-0.8377,-0.8347,-0.835,-0.8347,-0.8346,-0.8349,-0.8384,-0.8385,-0.8386,-0.8387,0,-0.8236,-0.8232,-0.8249,-0.8266,-0.828,-0.8292,-0.8303,-0.8314,-0.8304,-0.8319,-0.834,-0.8351,-0.8374,-0.8394,-0.8409,-0.8412,-0.8399,-0.8396,-0.8404,-0.8409,-0.8412,-0.8412,-0.8309,-0.8394,-0.8394,-0.8393,-0.8393,-0.8392,-0.8295,-0.8315,-0.8323,-0.8342,-0.8349,-0.8359,-0.8378,-0.8377,-0.8395,-0.8413,-0.8405,-0.8429,-0.8437,-0.8456,-0.8461,-0.848,-0.8467,-0.8479,-0.8482,-0.8485,-0.849,-0.8407,-0.8483,-0.8482,-0.8482,-0.8482,-0.8482,0,-0.8375,-0.8379,-0.8397,-0.8412,-0.8428,-0.8412,-0.8423,-0.8437,-0.8459,-0.8467,-0.8482,-0.8506,-0.8525,-0.8525,-0.8542,-0.8558,-0.8552,-0.8563,-0.8562,-0.8563,-0.8499,-0.8491,-0.8567,-0.8567,-0.8567,-0.8567,-0.8567,-0.8567,-0.8419,-0.8452,-0.8449,-0.8485,-0.8488,-0.8512,-0.852,-0.8529,-0.8536,-0.8564,-0.8579,-0.8579,-0.8584,-0.8601,-0.8617,-0.8617,-0.8625,-0.8638,-0.8636,-0.8576,-0.8568,-0.856,-0.8553,-0.864,-0.864,-0.8698,-0.8699,-0.8699]}]]